STARLETTE 1 07646U 75010A 10245.91788720 -.00000111 +00000-0 +26966-4 0 03722 2 07646 049.8220 183.5826 0205836 095.2772 267.1640 13.82273655796920 LAGEOS 1 1 08820U 76039A 10246.54368789 -.00000002 00000-0 10000-3 0 28 2 08820 109.8607 004.2808 0044090 096.9080 263.6488 06.38664858545355 EGS (AJISAI) 1 16908U 86061A 10245.95476540 -.00000083 +00000-0 +10000-3 0 03650 2 16908 050.0078 237.6342 0011354 263.1370 096.8173 12.44464744762738 LAGEOS 2 1 22195U 92070B 10245.68110724 -.00000009 +00000-0 +10000-3 0 02333 2 22195 052.6764 311.2256 0138554 186.1584 173.7269 06.47293825422313 STELLA 1 22824U 93061B 10245.66399163 +.00000019 +00000-0 +25425-4 0 06609 2 22824 098.5260 186.9947 0007445 085.3611 274.8418 14.27289083882307 WESTPAC 1 25398U 98043E 10246.19988213 -.00000047 00000-0 -27519-5 0 9010 2 25398 098.3197 247.9992 0001815 037.9373 322.1933 14.22683125631002 GRACE 1 1 27391U 02012A 10245.73658074 +.00000784 +00000-0 +22092-4 0 05814 2 27391 089.0114 303.8886 0015260 174.1459 185.9992 15.34897926473177 GRACE 2 1 27392U 02012B 10245.73622009 +.00000710 +00000-0 +19882-4 0 05816 2 27392 089.0104 303.9081 0016233 176.7361 183.4023 15.34898019473178 GOCE 1 34602U 09013A 10246.56303196 .00043095 26996-5 70573-4 0 3510 2 34602 096.6514 260.4746 0002875 328.7473 031.3613 16.03452589 85769